{"data":{"norad_id":39088,"intl_designator":"2013-009C","name":"SAPPHIRE","alt_names":[],"object_type":"PAYLOAD","status":"ACTIVE","operator":null,"country":"CA","launch_date":"2013-02-25","launch_site_code":"SRILR","launch_vehicle":null,"mission":null,"orbit_class":"UNKNOWN","rcs_meters":0.6034,"size_class":null,"mass_kg":null,"dimensions":null,"purposes":["military"],"wikipedia_slug":null,"has_3d_model":false,"image_url":null,"decayed_at":null,"tle_current":{"epoch":"2026-09-20T04:22:52.231872Z","epoch_age_seconds":41738,"freshness":"FRESH","line1":"1 39088U 13009C   26263.18254898  .00000058  00000+0  35093-4 0  9991","line2":"2 39088  98.4314  80.4192 0010595 331.7551  28.3059 14.35260937710205","mean_motion":14.35260937,"eccentricity":0.0010595,"inclination_deg":98.4314,"raan_deg":80.4192,"arg_perigee_deg":331.7551,"mean_anomaly_deg":28.3059,"bstar":3.5093e-5,"rev_number":71020,"period_min":100.33018825203,"perigee_km":766.62147736239,"apogee_km":781.77727814685,"semimajor_km":7152.3363777546,"source":"CELESTRAK","updated_at":"2026-09-20T09:00:47.713511Z"}}}